Find Shiyan 28B-02

NORAD ID: 65226 Int'l Des: 2025-177 Owner: ZZB Country: CN operational
LEOCIRCULAR

リアルタイム位置

3D地球を読み込み中...

Shiyan 28B-02について

説明を読み込み中...

次回通過

Passes for default location (London). Set your location on the main map for personalized predictions.

高度履歴

Loading altitude history...

軌道要素

1 65226U 25177A 26106.89624242 .00000581 00000-0 57726-4 0 9990
2 65226 11.0009 333.2234 0003990 247.9504 112.0300 14.29364620 34759
Epoch: Apr 16, 2026 • Age: 16 hours

現在のステータス

高度 791.2 km
速度 7.46 km/s
衛星直下点 5.37°N, 75.24°E
打ち上げ日 Aug 17, 2025
運用期間 0.6 years
タイプ other

技術仕様

分類 Payload
質量 2000.00 kg
乾燥質量 2000.00 kg
総質量 2000.00 kg
長さ 2.50 m
直径 2.50 m
スパン 5.00 m
形状 Box + 2 Pan
製造者 IMICAS
フェーズステータス In Orbit
所有者/国 ZZB/CN

Most Searched